Flag for Canada Weather past 2 weeks in MD of Lunenburg, Nova Scotia, Canada

Now
68 °F

Mild.


Feels Like: 68 °F
Forecast: N/A
Wind: 9 mph from South

Location: McNabs Island - AUT

Current Time: Jul 4, 2015 at 5:57:03 PM

Latest Report: Jul 4, 2015 at 5:00 PM


Visibility: N/A

Pressure: 29.97 "Hg

Humidity: 60%

Dew point: 54 °F

Location of MD of LunenburgLocation

Historic Weather in MD of Lunenburg — Graph

°F

MD of Lunenburg temperature yesterday

Maximum temperature yesterday: 72 °F (at 3:00 PM)
Minimum temperature yesterday: 57 °F (at 1:00 AM)
Average temperature yesterday: 63 °F

Past Weeks' High & Low Weather Summary

 TemperatureHumidityPressure
High76 °F (Jul 4, 1:00 PM)100% (Jun 21, 12:00 AM)30.22 "Hg (Jun 21, 12:00 AM)
Low48 °F (Jun 27, 5:00 AM)21% (Jun 29, 2:00 AM)29.43 "Hg (Jun 22, 5:00 AM)
Average59 °F72%29.92 "Hg
* Reported Jun 19 4:00 PM — Jul 4 4:00 PM, MD of Lunenburg, Weather by CustomWeather, © 2015

Note: Actual official high and low records may vary slightly from our data, if they occured in-between our weather recording intervals... More about our weather records

Advertising

MD of Lunenburg weather history for previous 24 hours

 ConditionsComfort  
Time TempWeatherWind HumidityBarometerVisibility
4:00 PM
Sat, Jul 4
70 °FMild.12 mph62%29.97 "HgN/A
3:00 PM74 °FMild.13 mph47%29.97 "HgN/A
2:00 PM71 °FMild.7 mph63%29.97 "HgN/A
1:00 PM76 °FMild.9 mph48%29.98 "HgN/A
12:00 PM72 °FMild.8 mph61%30.00 "HgN/A
11:00 AM74 °FMild.1 mph61%29.99 "HgN/A
10:00 AM71 °FMild.3 mph58%29.99 "HgN/A
9:00 AM67 °FMild.5 mph63%29.99 "HgN/A
8:00 AM63 °FMild.3 mph69%29.98 "HgN/A
7:00 AM59 °FCool.5 mph76%29.96 "HgN/A
6:00 AM58 °FCool.5 mph80%29.96 "HgN/A
5:00 AM58 °FCool.6 mph79%29.95 "HgN/A
4:00 AM59 °FCool.3 mph80%29.94 "HgN/A
3:00 AM58 °FCool.5 mph83%29.93 "HgN/A
2:00 AM58 °FCool.2 mph84%29.92 "HgN/A
1:00 AM61 °FCool.9 mph77%29.91 "HgN/A
12:00 AM62 °FCool.10 mph79%29.90 "HgN/A
11:00 PM
Fri, Jul 3
62 °FCool.5 mph79%29.89 "HgN/A
10:00 PM61 °FCool.2 mph96%29.88 "HgN/A
9:00 PM61 °FCool.5 mphN/A29.85 "HgN/A
8:00 PM65 °FMild.8 mph96%29.82 "HgN/A
7:00 PM67 °FMild.18 mph91%29.80 "HgN/A
6:00 PM69 °FMild.21 mph93%29.80 "HgN/A
5:00 PM69 °FMild.20 mph88%29.80 "HgN/A
Weather by CustomWeather, © 2015

See weather overviewHow to use our weather pages